Location: Aytr�
(46.1357°N, 1.1145°W)
Time: 19:25:06
(UTC+00:00)

ERS-2 - Pass Details

Date: 03 March 2021
Orbit: 492 x 496 km, 98.6° (Epoch: 20 April)

Event Time Altitude Azimuth Distance (km) Brightness Sun altitude
Rises 18:22:13 0° 23° (NNE) 2,595 5.5 -5.7°
Reaches altitude 10° 18:24:29 10° 35° (NE) 1,707 4.5 -6.1°
Maximum altitude 18:27:46 30° 98° (E) 911 2.9 -6.7°
Drops below altitude 10° 18:31:01 10° 161° (SSE) 1,694 4.6 -7.2°
Sets 18:33:15 0° 172° (S) 2,572 5.7 -7.6°
